Location: Newark
(12.4436°N, 0.6167°W)
Time: 12:36:30
(UTC+00:00)

deb Explorer IX - Pass Details

Date: 17 December 2019
Orbit: 548 x 1101 km, 38.8° (Epoch: 26 January)

Event Time Altitude Azimuth Distance (km) Brightness Sun altitude
Rises 22:42:34 0° 275° (W) 3,850 - -68.9°
Reaches altitude 10° 22:46:50 10° 252° (WSW) 2,937 - -69.8°
Maximum altitude 22:50:22 14° 223° (SW) 2,646 - -70.5°
Drops below altitude 10° 22:53:55 10° 193° (SSW) 2,936 - -71.1°
Sets 22:58:13 0° 170° (S) 3,846 - -72.0°
